TimeEDT,TemperatureF,Dew PointF,Humidity,Sea Level PressureIn,VisibilityMPH,Wind Direction,Wind SpeedMPH,Gust SpeedMPH,PrecipitationIn,Events,Conditions,WindDirDegrees,DateUTC
12:46 AM,69.8,69.8,100,29.89,10.0,SSW,4.6,-,N/A,Rain,Light Rain,210,2013-08-31 04:46:00
12:47 AM,69.8,69.8,100,29.89,10.0,SSW,4.6,-,N/A,,Mostly Cloudy,210,2013-08-31 04:47:00
12:50 AM,69.8,69.8,100,29.89,10.0,SW,5.8,-,N/A,Rain,Light Rain,220,2013-08-31 04:50:00
12:56 AM,69.8,69.8,100,29.89,10.0,SW,6.9,-,N/A,,Mostly Cloudy,220,2013-08-31 04:56:00
12:57 AM,69.8,69.8,100,29.89,10.0,SW,8.1,-,N/A,Rain,Light Rain,220,2013-08-31 04:57:00
12:58 AM,69.8,69.8,100,29.90,10.0,SW,8.1,-,0.00,Rain,Light Rain,220,2013-08-31 04:58:00
1:00 AM,69.8,69.8,100,29.89,10.0,SW,8.1,-,N/A,,Mostly Cloudy,220,2013-08-31 05:00:00
1:01 AM,69.8,69.8,100,29.89,10.0,SW,6.9,-,N/A,Rain,Light Rain,220,2013-08-31 05:01:00
1:20 AM,69.8,69.8,100,29.89,10.0,WSW,6.9,-,N/A,,Mostly Cloudy,240,2013-08-31 05:20:00
1:58 AM,68.7,68.5,99,29.89,10.0,SSW,5.8,-,0.00,,Clear,210,2013-08-31 05:58:00
2:10 AM,68.0,68.0,100,29.88,10.0,SW,5.8,-,N/A,Rain,Light Rain,220,2013-08-31 06:10:00
2:19 AM,68.0,68.0,100,29.87,10.0,SSW,5.8,-,N/A,,Scattered Clouds,210,2013-08-31 06:19:00
2:33 AM,68.0,68.0,100,29.87,10.0,SSW,5.8,-,N/A,Rain,Light Rain,200,2013-08-31 06:33:00
2:41 AM,68.0,68.0,100,29.87,10.0,SSW,5.8,-,N/A,Rain,Light Rain,200,2013-08-31 06:41:00
2:43 AM,68.0,68.0,100,29.87,10.0,South,4.6,-,N/A,,Mostly Cloudy,190,2013-08-31 06:43:00
2:44 AM,68.0,68.0,100,29.87,10.0,South,4.6,-,N/A,,Mostly Cloudy,190,2013-08-31 06:44:00
2:51 AM,68.0,68.0,100,29.87,9.0,SSW,5.8,-,N/A,,Mostly Cloudy,210,2013-08-31 06:51:00
2:58 AM,68.5,68.2,99,29.88,9.0,SSW,5.8,-,0.00,,Mostly Cloudy,210,2013-08-31 06:58:00
2:59 AM,68.0,68.0,100,29.87,9.0,SW,5.8,-,N/A,,Mostly Cloudy,220,2013-08-31 06:59:00
3:18 AM,68.0,68.0,100,29.87,10.0,SW,6.9,-,N/A,,Overcast,220,2013-08-31 07:18:00
3:19 AM,68.0,68.0,100,29.87,10.0,SW,6.9,-,N/A,Rain,Light Rain,220,2013-08-31 07:19:00
3:22 AM,68.0,68.0,100,29.87,10.0,SW,8.1,-,N/A,Rain,Light Rain,220,2013-08-31 07:22:00
3:24 AM,68.0,68.0,100,29.87,10.0,SW,6.9,-,N/A,Rain,Light Rain,220,2013-08-31 07:24:00
3:50 AM,68.0,68.0,100,29.87,10.0,SW,6.9,-,N/A,Rain,Light Rain,220,2013-08-31 07:50:00
3:58 AM,68.0,68.0,100,29.88,10.0,SW,6.9,-,0.00,Rain,Light Rain,220,2013-08-31 07:58:00
3:59 AM,68.0,68.0,100,29.87,10.0,SW,6.9,-,N/A,,Mostly Cloudy,230,2013-08-31 07:59:00
4:01 AM,68.0,68.0,100,29.87,10.0,SW,6.9,-,N/A,,Mostly Cloudy,220,2013-08-31 08:01:00
4:06 AM,68.0,68.0,100,29.87,10.0,SW,8.1,-,N/A,Rain,Light Rain,220,2013-08-31 08:06:00
4:12 AM,69.8,68.0,94,29.87,10.0,SW,8.1,-,N/A,Rain,Light Rain,220,2013-08-31 08:12:00
4:20 AM,69.8,68.0,94,29.87,10.0,SW,6.9,-,N/A,Rain,Light Rain,230,2013-08-31 08:20:00
4:23 AM,69.8,68.0,94,29.87,10.0,SW,5.8,-,N/A,,Overcast,220,2013-08-31 08:23:00
4:28 AM,69.8,68.0,94,29.87,10.0,SW,5.8,-,N/A,,Overcast,230,2013-08-31 08:28:00
4:58 AM,69.1,68.7,99,29.88,10.0,SSW,6.9,-,0.00,,Overcast,210,2013-08-31 08:58:00
5:05 AM,69.8,68.0,94,29.87,10.0,SSW,5.8,-,N/A,,Overcast,210,2013-08-31 09:05:00
5:08 AM,69.8,68.0,94,29.87,10.0,SSW,6.9,-,N/A,,Overcast,210,2013-08-31 09:08:00
5:23 AM,69.8,68.0,94,29.87,10.0,SSW,5.8,-,N/A,Rain,Light Rain,210,2013-08-31 09:23:00
5:37 AM,68.0,68.0,100,29.87,10.0,SSW,4.6,-,N/A,,Overcast,200,2013-08-31 09:37:00
5:38 AM,68.0,68.0,100,29.87,10.0,SSW,4.6,-,N/A,Rain,Light Rain,200,2013-08-31 09:38:00
5:43 AM,68.0,68.0,100,29.87,10.0,SSW,4.6,-,N/A,,Overcast,200,2013-08-31 09:43:00
5:47 AM,68.0,68.0,100,29.87,10.0,SSW,5.8,-,N/A,Rain,Light Rain,200,2013-08-31 09:47:00
5:48 AM,69.8,68.0,94,29.87,10.0,SSW,5.8,-,N/A,,Overcast,200,2013-08-31 09:48:00
5:51 AM,69.8,68.0,94,29.87,10.0,SSW,5.8,-,N/A,,Overcast,210,2013-08-31 09:51:00
5:57 AM,69.8,68.0,94,29.87,10.0,SSW,5.8,-,N/A,,Overcast,210,2013-08-31 09:57:00
5:58 AM,69.8,68.0,94,29.88,10.0,SSW,5.8,-,0.00,,Overcast,210,2013-08-31 09:58:00
6:11 AM,69.8,68.0,94,29.87,10.0,SSW,6.9,-,N/A,,Overcast,210,2013-08-31 10:11:00
6:18 AM,69.8,68.0,94,29.87,10.0,SSW,9.2,-,N/A,Rain,Light Rain,210,2013-08-31 10:18:00
6:58 AM,69.1,68.7,99,29.88,9.0,SSW,6.9,-,0.00,Rain,Light Rain,210,2013-08-31 10:58:00
7:04 AM,69.8,68.0,94,29.87,9.0,SSW,4.6,-,N/A,,Overcast,210,2013-08-31 11:04:00
7:05 AM,69.8,68.0,94,29.87,9.0,SSW,5.8,-,N/A,Rain,Light Rain,210,2013-08-31 11:05:00
7:24 AM,69.8,69.8,100,29.87,10.0,SSW,6.9,-,N/A,,Overcast,210,2013-08-31 11:24:00
7:25 AM,69.8,69.8,100,29.87,10.0,SSW,6.9,-,N/A,Rain,Light Rain,210,2013-08-31 11:25:00
7:41 AM,69.8,69.8,100,29.87,10.0,SW,8.1,-,N/A,,Overcast,220,2013-08-31 11:41:00
7:58 AM,70.2,69.8,99,29.88,10.0,SSW,9.2,-,0.00,,Overcast,210,2013-08-31 11:58:00
8:22 AM,71.6,71.6,100,29.86,10.0,SW,10.4,-,N/A,,Overcast,220,2013-08-31 12:22:00
8:42 AM,71.6,71.6,100,29.87,10.0,WSW,9.2,-,N/A,,Overcast,240,2013-08-31 12:42:00
8:58 AM,73.0,70.9,93,29.87,10.0,SW,8.1,-,N/A,,Overcast,230,2013-08-31 12:58:00
9:02 AM,73.4,71.6,94,29.86,10.0,SW,11.5,-,N/A,,Overcast,220,2013-08-31 13:02:00
9:08 AM,73.4,71.6,94,29.86,10.0,SW,8.1,-,N/A,,Overcast,220,2013-08-31 13:08:00
9:37 AM,75.2,71.6,89,29.87,10.0,SW,8.1,-,N/A,,Overcast,230,2013-08-31 13:37:00
9:53 AM,77.0,71.6,83,29.86,10.0,SW,10.4,-,N/A,,Overcast,220,2013-08-31 13:53:00
9:58 AM,76.5,71.1,83,29.87,10.0,SW,8.1,-,N/A,,Overcast,230,2013-08-31 13:58:00
10:30 AM,80.6,71.6,74,29.86,10.0,SW,10.4,-,N/A,,Overcast,220,2013-08-31 14:30:00
10:58 AM,81.7,71.8,72,29.87,10.0,SW,10.4,-,N/A,,Overcast,230,2013-08-31 14:58:00
11:16 AM,82.4,71.6,70,29.86,10.0,WSW,5.8,-,N/A,,Overcast,240,2013-08-31 15:16:00
11:42 AM,82.4,71.6,70,29.85,10.0,WSW,8.1,-,N/A,,Scattered Clouds,240,2013-08-31 15:42:00
11:58 AM,83.5,72.3,69,29.86,10.0,WSW,6.9,-,N/A,,Scattered Clouds,240,2013-08-31 15:58:00
12:05 PM,84.2,71.6,66,29.85,10.0,West,10.4,-,N/A,,Mostly Cloudy,270,2013-08-31 16:05:00
12:50 PM,84.2,73.4,70,29.84,10.0,SW,10.4,-,N/A,,Scattered Clouds,230,2013-08-31 16:50:00
12:58 PM,85.5,72.7,65,29.84,10.0,WSW,11.5,-,N/A,,Scattered Clouds,240,2013-08-31 16:58:00
1:58 PM,86.2,72.7,64,29.83,10.0,WSW,12.7,-,N/A,,Mostly Cloudy,240,2013-08-31 17:58:00
2:58 PM,86.7,73.4,64,29.82,10.0,SW,13.8,-,N/A,,Scattered Clouds,220,2013-08-31 18:58:00
3:58 PM,87.3,72.0,60,29.81,10.0,WSW,15.0,-,N/A,,Partly Cloudy,240,2013-08-31 19:58:00
4:58 PM,85.3,72.5,65,29.80,10.0,SSW,10.4,-,N/A,,Clear,210,2013-08-31 20:58:00
5:58 PM,83.7,71.4,66,29.80,10.0,SSW,9.2,-,N/A,,Clear,210,2013-08-31 21:58:00
6:58 PM,81.1,71.2,72,29.81,10.0,SSW,4.6,-,N/A,,Clear,210,2013-08-31 22:58:00
7:58 PM,78.4,71.1,78,29.83,10.0,South,4.6,-,N/A,,Clear,180,2013-08-31 23:58:00
8:58 PM,77.5,71.8,82,29.84,10.0,SSW,9.2,-,N/A,,Scattered Clouds,200,2013-09-01 00:58:00
9:58 PM,76.6,71.6,84,29.85,10.0,SSW,9.2,-,N/A,,Mostly Cloudy,200,2013-09-01 01:58:00
10:58 PM,75.7,71.6,87,29.85,10.0,SSW,10.4,-,N/A,,Overcast,200,2013-09-01 02:58:00
11:58 PM,75.4,72.0,89,29.84,10.0,SSW,9.2,-,N/A,,Overcast,210,2013-09-01 03:58:00